Voltar ao catálogo

STARLINK-32034

AtivoComunicaçõesVLEO
NORAD 60297·PAYLOAD·🇺🇸 United States

Lançado Jul 28, 2024 de Cape Canaveral Space Force Station

Loading…

Próximas Passagens (próximas 24 horas)

TLE

AtualizadoSource: CelesTrak SupGP

Época: Sep 14, 2026, 20:52 UTC

1 60297C 24132V   26257.86993056  .00053586  00000+0  17233-2 0  2575
2 60297  53.1574 252.2887 0001222  95.7806 304.2012 15.31672364    18

Acompanhe STARLINK-32034 em tempo real com AllMySat

Download on the App Store